This is the latest recevied weather packets stored in our database for station/object KC5DAQ-28. If no packets are shown the sender has not sent any weather packets the latest 10 day(s).
| Time | Temp. | Humidity | Pressure | Rain* | Wind** | Luminosity | Snow |
|---|---|---|---|---|---|---|---|
| 1778168884 | 18.33° C | 83% | 1010.2 hPa | 0 mm | - | 411 W/m² | - |
| 1778168825 | 18.33° C | 83% | 1010.2 hPa | 0 mm | - | 411 W/m² | - |
| 1778168764 | 18.33° C | 83% | 1010.2 hPa | 0 mm | - | 345 W/m² | - |
| 1778168705 | 18.33° C | 83% | 1010.2 hPa | 0 mm | - | 345 W/m² | - |
| 1778168642 | 18.33° C | 84% | 1010.3 hPa | 0 mm | - | 345 W/m² | - |
| 1778168583 | 18.33° C | 84% | 1010.3 hPa | 0 mm | - | 345 W/m² | - |
| 1778168523 | 18.33° C | 84% | 1010.4 hPa | 0 mm | - | 294 W/m² | - |
| 1778168462 | 18.33° C | 84% | 1010.4 hPa | 0 mm | - | 283 W/m² | - |
| 1778168404 | 17.78° C | 84% | 1010.3 hPa | 0 mm | - | 380 W/m² | - |
| 1778168343 | 17.78° C | 84% | 1010.2 hPa | 0 mm | - | 512 W/m² | - |
| 1778168284 | 17.78° C | 84% | 1010.3 hPa | 0 mm | - | 480 W/m² | - |
| 1778168223 | 17.78° C | 85% | 1010.3 hPa | 0 mm | - | 431 W/m² | - |
| 1778168164 | 17.78° C | 85% | 1010.3 hPa | 0 mm | - | 346 W/m² | - |
| 1778168104 | 17.78° C | 85% | 1010.4 hPa | 0 mm | - | 346 W/m² | - |
| 1778168041 | 17.78° C | 85% | 1010.4 hPa | 0 mm | - | 346 W/m² | - |
| 1778167984 | 17.78° C | 84% | 1010.3 hPa | 0 mm | - | 322 W/m² | - |
| 1778167925 | 17.78° C | 84% | 1010.4 hPa | 0 mm | - | 322 W/m² | - |
| 1778167864 | 17.78° C | 85% | 1010.2 hPa | 0 mm | - | 322 W/m² | - |
| 1778167804 | 17.78° C | 85% | 1010.3 hPa | 0 mm | - | 144 W/m² | - |
| 1778167742 | 17.78° C | 85% | 1010.2 hPa | 0 mm | - | 197 W/m² | - |
| 1778167683 | 17.78° C | 85% | 1010.2 hPa | 0 mm | - | 197 W/m² | - |
| 1778167624 | 17.78° C | 85% | 1010.4 hPa | 0 mm | - | 283 W/m² | - |
| 1778167563 | 17.78° C | 85% | 1010.4 hPa | 0 mm | - | 297 W/m² | - |
| 1778167502 | 17.78° C | 85% | 1010.4 hPa | 0 mm | - | 239 W/m² | - |
| 1778167444 | 17.78° C | 85% | 1010.4 hPa | 0 mm | - | 239 W/m² | - |
* Rain latest hour (hover to see other rain measurements)
** Current wind speed in m/s (hover to see current wind gust speed)